Terminal Aerodrome Forecast
Issued by NWS Greer, SC

Home | Current Version | Previous Version | Text Only | Print | Product List | Glossary On
Versions: 1 2 3 4 5 6 7 8 9 10 11 12 13 14 15 16 17 18 19 20 21 22 23 24 25 26 27 28 29 30 31 32 33 34 35 36 37 38 39 40 41 42 43 44 45 46 47
000
FTUS42 KGSP 011509 AAB
TAFCLT
TAF AMD
KCLT 011509Z 0115/0212 24003KT P6SM FEW160 SCT250
     FM011800 25008G16KT P6SM SCT060 BKN160
      TEMPO 0119/0123 4SM TSRA BKN040CB
     FM020100 26004KT P6SM BKN060=

USA.gov is the U.S. government's official web portal to all federal, state and local government web resources and services.